| time (UTC) | temp C | wind direction | speed KPH | gust KPH | rain 1hr cm | rain 24hr cm | rain mn cm | humidity % | barometer mb |
| 20260508045245 | 12 | 72 | 0.0 | 0.0 | 0.00 | 0.00 | 0.00 | 97 | 1014.3 |
| 20260508044742 | 12 | 50 | 0.0 | 0.0 | 0.00 | 0.00 | 0.00 | 97 | 1014.2 |
| 20260508044239 | 12 | 50 | 0.0 | 0.0 | 0.00 | 0.00 | 0.00 | 97 | 1014.4 |
| 20260508043735 | 12 | 117 | 0.0 | 0.0 | 0.00 | 0.00 | 0.00 | 97 | 1014.2 |
| 20260508043233 | 12 | 117 | 0.0 | 0.0 | 0.00 | 0.00 | 0.00 | 97 | 1014.4 |
| 20260508042729 | 12 | 117 | 0.0 | 0.0 | 0.00 | 0.00 | 0.00 | 97 | 1014.2 |
| 20260508042227 | 12 | 117 | 0.0 | 0.0 | 0.00 | 0.00 | 0.00 | 97 | 1014.4 |
| 20260508041723 | 12 | 117 | 0.0 | 0.0 | 0.00 | 0.00 | 0.00 | 97 | 1014.2 |
| 20260508041220 | 12 | 117 | 0.0 | 0.0 | 0.00 | 0.00 | 0.00 | 97 | 1014.3 |
| 20260508040716 | 12 | 117 | 0.0 | 0.0 | 0.00 | 0.00 | 0.00 | 97 | 1014.1 |
| 20260508040214 | 12 | 117 | 0.0 | 0.0 | 0.00 | 0.00 | 0.00 | 97 | 1014.1 |
| 20260508035711 | 12 | 117 | 0.0 | 0.0 | 0.00 | 1.27 | 1.27 | 97 | 1014.3 |
| 20260508035208 | 12 | 117 | 0.0 | 0.0 | 0.00 | 1.27 | 1.27 | 97 | 1014.3 |
| 20260508034704 | 12 | 117 | 0.0 | 0.0 | 0.00 | 1.27 | 1.27 | 97 | 1014.0 |
| 20260508034202 | 12 | 117 | 0.0 | 0.0 | 0.00 | 1.27 | 1.27 | 97 | 1013.9 |
| 20260508033659 | 12 | 117 | 0.0 | 0.0 | 0.00 | 1.27 | 1.27 | 97 | 1013.8 |
| 20260508033157 | 12 | 117 | 0.0 | 0.0 | 0.00 | 1.27 | 1.27 | 97 | 1013.5 |
| 20260508032654 | 12 | 117 | 0.0 | 0.0 | 0.00 | 1.27 | 1.27 | 97 | 1013.5 |
| 20260508032151 | 12 | 117 | 0.0 | 0.0 | 0.00 | 1.27 | 1.27 | 97 | 1013.4 |
| 20260508031648 | 12 | 117 | 0.0 | 0.0 | 0.00 | 1.27 | 1.27 | 97 | 1013.6 |
| 20260508031144 | 12 | 117 | 0.0 | 0.0 | 0.00 | 1.27 | 1.27 | 97 | 1013.7 |
| 20260508030641 | 12 | 117 | 0.0 | 0.0 | 0.00 | 1.27 | 1.27 | 97 | 1013.6 |
| 20260508030139 | 12 | 117 | 0.0 | 0.0 | 0.00 | 1.27 | 1.27 | 97 | 1013.6 |
| 20260508025635 | 12 | 117 | 0.0 | 0.0 | 0.00 | 1.27 | 1.27 | 97 | 1013.5 |
| 20260508025132 | 12 | 117 | 0.0 | 0.0 | 0.00 | 1.27 | 1.27 | 97 | 1013.5 |
| 20260508024627 | 12 | 117 | 0.0 | 0.0 | 0.00 | 1.27 | 1.27 | 97 | 1013.3 |
| 20260508024125 | 12 | 117 | 0.0 | 0.0 | 0.00 | 1.27 | 1.27 | 97 | 1013.3 |
| 20260508023621 | 12 | 117 | 0.0 | 0.0 | 0.00 | 1.27 | 1.27 | 97 | 1013.2 |
| 20260508023119 | 12 | 117 | 0.0 | 0.0 | 0.00 | 1.27 | 1.27 | 96 | 1013.3 |
| 20260508022614 | 12 | 117 | 0.0 | 0.0 | 0.00 | 1.27 | 1.27 | 96 | 1013.2 |
| 20260508022112 | 12 | 117 | 0.0 | 0.0 | 0.00 | 1.27 | 1.27 | 96 | 1013.3 |
| 20260508021607 | 12 | 117 | 0.0 | 0.0 | 0.00 | 1.27 | 1.27 | 96 | 1013.0 |
| 20260508021104 | 12 | 116 | 0.0 | 1.6 | 0.00 | 1.27 | 1.27 | 96 | 1013.1 |
| 20260508020601 | 12 | 118 | 0.0 | 0.0 | 0.00 | 1.27 | 1.27 | 96 | 1013.1 |
| 20260508020059 | 12 | 118 | 0.0 | 0.0 | 0.00 | 1.27 | 1.27 | 96 | 1013.0 |
| 20260508015556 | 12 | 117 | 0.0 | 0.0 | 0.00 | 1.27 | 1.27 | 96 | 1013.1 |
| 20260508015053 | 12 | 118 | 0.0 | 0.0 | 0.00 | 1.27 | 1.27 | 96 | 1013.1 |
| 20260508014549 | 12 | 118 | 0.0 | 0.0 | 0.00 | 1.27 | 1.27 | 96 | 1012.9 |
| 20260508014045 | 12 | 118 | 0.0 | 0.0 | 0.00 | 1.27 | 1.27 | 96 | 1012.8 |
| 20260508013542 | 12 | 118 | 0.0 | 0.0 | 0.00 | 1.27 | 1.27 | 95 | 1012.6 |
| 20260508013039 | 12 | 118 | 0.0 | 0.0 | 0.00 | 1.27 | 1.27 | 95 | 1012.2 |
| 20260508012536 | 12 | 99 | 0.0 | 0.0 | 0.00 | 1.27 | 1.27 | 95 | 1012.1 |
| 20260508012034 | 12 | 109 | 0.0 | 0.0 | 0.00 | 1.27 | 1.27 | 95 | 1012.0 |
| 20260508011532 | 12 | 38 | 0.0 | 1.6 | 0.00 | 1.27 | 1.27 | 95 | 1011.9 |
| 20260508011029 | 12 | 54 | 3.2 | 3.2 | 0.00 | 1.27 | 1.27 | 94 | 1011.9 |
| 20260508010525 | 12 | 30 | 0.0 | 1.6 | 0.00 | 1.27 | 1.27 | 94 | 1012.2 |
| 20260508010023 | 12 | 55 | 0.0 | 0.0 | 0.00 | 1.27 | 1.27 | 94 | 1012.3 |
| 20260508005519 | 12 | 64 | 0.0 | 0.0 | 0.00 | 1.27 | 1.27 | 93 | 1012.4 |
| 20260508005016 | 12 | 78 | 0.0 | 0.0 | 0.00 | 1.27 | 1.27 | 93 | 1012.5 |
| 20260508004513 | 12 | 79 | 0.0 | 1.6 | 0.00 | 1.27 | 1.27 | 93 | 1012.3 |
| 20260508004009 | 12 | 107 | 0.0 | 0.0 | 0.00 | 1.27 | 1.27 | 93 | 1012.1 |
| 20260508003506 | 12 | 52 | 0.0 | 0.0 | 0.00 | 1.27 | 1.27 | 93 | 1011.8 |
| 20260508003003 | 12 | 111 | 0.0 | 0.0 | 0.00 | 1.27 | 1.27 | 92 | 1011.7 |
| 20260508002459 | 12 | 122 | 0.0 | 1.6 | 0.00 | 1.27 | 1.27 | 93 | 1011.8 |
| 20260508001956 | 12 | 42 | 0.0 | 0.0 | 0.00 | 1.27 | 1.27 | 93 | 1012.1 |
| 20260508001452 | 12 | 59 | 0.0 | 1.6 | 0.00 | 1.27 | 1.27 | 93 | 1011.8 |
| 20260508000949 | 12 | 100 | 0.0 | 0.0 | 0.00 | 1.27 | 1.27 | 93 | 1011.8 |
| 20260508000444 | 12 | 65 | 0.0 | 0.0 | 0.00 | 1.27 | 1.27 | 94 | 1012.0 |
| 20260507235941 | 12 | 84 | 0.0 | 0.0 | 0.00 | 1.27 | 1.27 | 94 | 1011.4 |
| 20260507235438 | 12 | 123 | 1.6 | 1.6 | 0.00 | 1.27 | 1.27 | 94 | 1011.2 |
| 20260507234936 | 12 | 23 | 1.6 | 1.6 | 0.00 | 1.27 | 1.27 | 93 | 1011.1 |
| 20260507234432 | 12 | 59 | 0.0 | 0.0 | 0.00 | 1.27 | 1.27 | 94 | 1011.1 |
| 20260507233929 | 12 | 31 | 1.6 | 3.2 | 0.00 | 1.27 | 1.27 | 93 | 1011.2 |
| 20260507233426 | 12 | 54 | 0.0 | 0.0 | 0.00 | 1.27 | 1.27 | 93 | 1011.0 |
| 20260507232925 | 12 | 129 | 0.0 | 0.0 | 0.00 | 1.27 | 1.27 | 93 | 1011.2 |
| 20260507232420 | 12 | 36 | 1.6 | 1.6 | 0.00 | 1.27 | 1.27 | 92 | 1010.9 |
| 20260507231918 | 12 | 60 | 1.6 | 3.2 | 0.00 | 1.27 | 1.27 | 93 | 1010.8 |
| 20260507231414 | 12 | 140 | 1.6 | 1.6 | 0.00 | 1.27 | 1.27 | 93 | 1010.9 |
| 20260507230911 | 12 | 40 | 1.6 | 1.6 | 0.00 | 1.27 | 1.27 | 93 | 1011.0 |
| 20260507230408 | 12 | 32 | 3.2 | 6.4 | 0.00 | 1.27 | 1.27 | 93 | 1011.1 |
| 20260507225908 | 12 | 5 | 4.8 | 6.4 | 0.00 | 1.27 | 1.27 | 93 | 1011.0 |
| 20260507225404 | 12 | 46 | 3.2 | 4.8 | 0.00 | 1.27 | 1.27 | 93 | 1011.0 |
| 20260507224901 | 12 | 6 | 0.0 | 1.6 | 0.00 | 1.27 | 1.27 | 93 | 1011.0 |
| 20260507224357 | 12 | 51 | 0.0 | 0.0 | 0.00 | 1.27 | 1.27 | 93 | 1010.7 |
| 20260507223853 | 12 | 1 | 1.6 | 1.6 | 0.00 | 1.27 | 1.27 | 93 | 1010.6 |
| 20260507223350 | 12 | 39 | 3.2 | 3.2 | 0.00 | 1.27 | 1.27 | 93 | 1010.8 |
| 20260507222847 | 12 | 35 | 3.2 | 4.8 | 0.00 | 1.27 | 1.27 | 92 | 1010.5 |
| 20260507222343 | 12 | 52 | 1.6 | 1.6 | 0.00 | 1.27 | 1.27 | 93 | 1010.6 |
| 20260507221840 | 12 | 38 | 1.6 | 1.6 | 0.00 | 1.27 | 1.27 | 93 | 1010.4 |
| 20260507221337 | 12 | 21 | 1.6 | 1.6 | 0.00 | 1.27 | 1.27 | 93 | 1010.7 |
| 20260507220832 | 12 | 27 | 3.2 | 3.2 | 0.00 | 1.27 | 1.27 | 93 | 1010.3 |
| 20260507220331 | 12 | 27 | 1.6 | 3.2 | 0.00 | 1.27 | 1.27 | 93 | 1010.7 |
| 20260507215827 | 12 | 21 | 4.8 | 9.7 | 0.00 | 1.27 | 1.27 | 94 | 1010.9 |
| 20260507215325 | 12 | 61 | 1.6 | 1.6 | 0.00 | 1.27 | 1.27 | 94 | 1011.1 |
| 20260507214821 | 12 | 74 | 0.0 | 0.0 | 0.00 | 1.27 | 1.27 | 94 | 1010.5 |
| 20260507214314 | 12 | 103 | 0.0 | 0.0 | 0.00 | 1.27 | 1.27 | 94 | 1010.8 |
| 20260507213813 | 12 | 46 | 3.2 | 4.8 | 0.00 | 1.27 | 1.27 | 93 | 1010.7 |
| 20260507213311 | 12 | 68 | 0.0 | 0.0 | 0.00 | 1.27 | 1.27 | 93 | 1010.5 |
| 20260507212808 | 12 | 75 | 0.0 | 0.0 | 0.00 | 1.27 | 1.27 | 93 | 1010.7 |
| 20260507212306 | 12 | 121 | 1.6 | 1.6 | 0.00 | 1.27 | 1.27 | 93 | 1010.7 |
| 20260507211800 | 12 | 24 | 3.2 | 4.8 | 0.00 | 1.27 | 1.27 | 93 | 1010.4 |
| 20260507211257 | 12 | 19 | 3.2 | 3.2 | 0.00 | 1.27 | 1.27 | 92 | 1010.6 |
| 20260507210753 | 12 | 29 | 6.4 | 9.7 | 0.00 | 1.27 | 1.27 | 92 | 1010.5 |
| 20260507210250 | 12 | 43 | 1.6 | 3.2 | 0.00 | 1.27 | 1.27 | 92 | 1010.3 |
| 20260507205747 | 12 | 354 | 3.2 | 4.8 | 0.00 | 1.27 | 1.27 | 92 | 1010.4 |
| 20260507205244 | 12 | 43 | 3.2 | 3.2 | 0.00 | 1.27 | 1.27 | 93 | 1009.9 |
| 20260507204740 | 12 | 83 | 3.2 | 4.8 | 0.00 | 1.27 | 1.27 | 94 | 1010.1 |
| 20260507204238 | 12 | 123 | 3.2 | 6.4 | 0.00 | 1.27 | 1.27 | 94 | 1010.1 |
| 20260507203735 | 13 | 45 | 3.2 | 4.8 | 0.00 | 1.27 | 1.27 | 94 | 1010.2 |
| 20260507203233 | 13 | 30 | 0.0 | 1.6 | 0.00 | 1.27 | 1.27 | 94 | 1010.1 |
| 20260507202729 | 13 | 13 | 3.2 | 6.4 | 0.00 | 1.27 | 1.27 | 95 | 1010.0 |
| 20260507202225 | 13 | 31 | 3.2 | 6.4 | 0.00 | 1.27 | 1.27 | 96 | 1009.8 |
| 20260507201720 | 13 | 57 | 1.6 | 1.6 | 0.00 | 1.27 | 1.27 | 96 | 1009.8 |
| 20260507201218 | 13 | 70 | 0.0 | 1.6 | 0.00 | 1.27 | 1.27 | 96 | 1009.8 |
| 20260507200714 | 13 | 11 | 1.6 | 3.2 | 0.00 | 1.27 | 1.27 | 96 | 1009.6 |
| 20260507200210 | 13 | 35 | 3.2 | 3.2 | 0.00 | 1.27 | 1.27 | 96 | 1009.8 |
| 20260507195706 | 13 | 108 | 0.0 | 1.6 | 0.00 | 1.27 | 1.27 | 95 | 1009.9 |
| 20260507195203 | 13 | 1 | 3.2 | 3.2 | 0.00 | 1.27 | 1.27 | 96 | 1010.1 |
| 20260507194700 | 13 | 41 | 0.0 | 1.6 | 0.00 | 1.27 | 1.27 | 96 | 1009.9 |
| 20260507194156 | 13 | 23 | 4.8 | 6.4 | 0.00 | 1.27 | 1.27 | 96 | 1009.7 |
| 20260507193653 | 13 | 33 | 3.2 | 4.8 | 0.00 | 1.27 | 1.27 | 96 | 1009.6 |
| 20260507193150 | 13 | 107 | 0.0 | 1.6 | 0.00 | 1.27 | 1.27 | 96 | 1009.7 |
| 20260507192646 | 13 | 8 | 3.2 | 4.8 | 0.00 | 1.27 | 1.27 | 96 | 1009.9 |
| 20260507192143 | 13 | 31 | 1.6 | 3.2 | 0.00 | 1.27 | 1.27 | 96 | 1009.9 |
| 20260507191638 | 13 | 38 | 1.6 | 3.2 | 0.00 | 1.27 | 1.27 | 96 | 1009.9 |
| 20260507191136 | 13 | 46 | 1.6 | 1.6 | 0.00 | 1.27 | 1.27 | 96 | 1009.9 |
| 20260507190633 | 13 | 37 | 1.6 | 1.6 | 0.18 | 1.27 | 1.27 | 97 | 1010.2 |
| 20260507190132 | 13 | 121 | 0.0 | 1.6 | 0.18 | 1.27 | 1.27 | 97 | 1010.3 |
| 20260507185630 | 13 | 69 | 0.0 | 1.6 | 0.00 | 1.24 | 1.24 | 97 | 1009.8 |
| 20260507185126 | 13 | 79 | 0.0 | 1.6 | 0.00 | 1.24 | 1.24 | 97 | 1009.8 |
| 20260507184624 | 14 | 47 | 1.6 | 1.6 | 0.00 | 1.24 | 1.24 | 97 | 1009.4 |
| 20260507184122 | 14 | 122 | 1.6 | 4.8 | 0.00 | 1.24 | 1.24 | 97 | 1009.2 |
| 20260507183618 | 14 | 77 | 0.0 | 0.0 | 0.00 | 1.24 | 1.24 | 97 | 1009.8 |
| 20260507183115 | 15 | 58 | 1.6 | 3.2 | 0.00 | 1.24 | 1.24 | 96 | 1010.2 |
| 20260507182611 | 15 | 75 | 0.0 | 1.6 | 0.00 | 1.24 | 1.24 | 96 | 1010.0 |
| 20260507182107 | 15 | 102 | 0.0 | 1.6 | 0.00 | 1.24 | 1.24 | 96 | 1009.9 |
| 20260507181604 | 15 | 26 | 1.6 | 1.6 | 0.00 | 1.24 | 1.24 | 96 | 1009.4 |
| 20260507181101 | 15 | 56 | 0.0 | 1.6 | 0.00 | 1.24 | 1.24 | 97 | 1009.2 |
| 20260507180558 | 15 | 124 | 0.0 | 1.6 | 0.00 | 1.24 | 1.24 | 97 | 1009.2 |
| 20260507180054 | 15 | 135 | 0.0 | 1.6 | 0.00 | 1.24 | 1.24 | 97 | 1009.4 |
| 20260507175550 | 15 | 19 | 3.2 | 4.8 | 0.00 | 1.24 | 1.24 | 96 | 1009.2 |
| 20260507175048 | 15 | 20 | 4.8 | 4.8 | 0.00 | 1.24 | 1.24 | 96 | 1009.6 |
| 20260507174544 | 15 | 80 | 0.0 | 1.6 | 0.00 | 1.24 | 1.24 | 96 | 1009.8 |
| 20260507174042 | 16 | 67 | 0.0 | 1.6 | 0.00 | 1.24 | 1.24 | 96 | 1010.4 |
| 20260507173539 | 16 | 41 | 1.6 | 3.2 | 0.00 | 1.24 | 1.24 | 95 | 1009.6 |
| 20260507173036 | 17 | 33 | 1.6 | 1.6 | 0.00 | 1.24 | 1.24 | 95 | 1009.9 |
| 20260507172532 | 19 | 104 | 1.6 | 1.6 | 0.00 | 1.24 | 1.24 | 94 | 1009.4 |
| 20260507172029 | 19 | 86 | 0.0 | 0.0 | 0.00 | 1.24 | 1.24 | 95 | 1008.6 |
| 20260507171525 | 20 | 88 | 0.0 | 0.0 | 0.00 | 1.24 | 1.24 | 95 | 1008.7 |
| 20260507171022 | 21 | 112 | 0.0 | 0.0 | 0.00 | 1.24 | 1.24 | 95 | 1008.6 |
| 20260507170518 | 20 | 60 | 0.0 | 1.6 | 0.00 | 1.24 | 1.24 | 94 | 1008.2 |
| 20260507170015 | 21 | 121 | 0.0 | 0.0 | 0.00 | 1.24 | 1.24 | 95 | 1008.6 |
| 20260507165511 | 21 | 82 | 0.0 | 0.0 | 0.00 | 1.24 | 1.24 | 95 | 1008.5 |
| 20260507165008 | 20 | 82 | 0.0 | 0.0 | 0.18 | 1.24 | 1.24 | 95 | 1008.6 |
| 20260507164504 | 20 | 52 | 0.0 | 0.0 | 0.18 | 1.24 | 1.24 | 96 | 1008.7 |
| 20260507164001 | 20 | 70 | 0.0 | 0.0 | 0.00 | 1.22 | 1.22 | 96 | 1008.8 |
| 20260507163458 | 20 | 99 | 0.0 | 0.0 | 0.00 | 1.22 | 1.22 | 97 | 1009.0 |
| 20260507162955 | 20 | 96 | 0.0 | 0.0 | 0.00 | 1.22 | 1.22 | 97 | 1009.5 |
| 20260507162451 | 20 | 160 | 0.0 | 0.0 | 0.00 | 1.22 | 1.22 | 97 | 1009.7 |
| 20260507161948 | 20 | 131 | 0.0 | 0.0 | 0.00 | 1.22 | 1.22 | 98 | 1009.8 |
| 20260507161444 | 20 | 158 | 0.0 | 0.0 | 0.13 | 1.22 | 1.22 | 98 | 1010.0 |
| 20260507160941 | 20 | 143 | 0.0 | 0.0 | 0.13 | 1.22 | 1.22 | 98 | 1009.9 |
| 20260507160437 | 20 | 138 | 0.0 | 0.0 | 0.00 | 1.19 | 1.19 | 98 | 1010.2 |
| 20260507155932 | 20 | 146 | 0.0 | 0.0 | 0.00 | 1.19 | 1.19 | 98 | 1010.4 |
| 20260507155429 | 20 | 2 | 0.0 | 0.0 | 0.00 | 1.19 | 1.19 | 98 | 1010.4 |
| 20260507154926 | 20 | 3 | 0.0 | 0.0 | 0.00 | 1.19 | 1.19 | 98 | 1010.2 |
| 20260507154423 | 20 | 4 | 0.0 | 0.0 | 0.00 | 1.19 | 1.19 | 98 | 1010.3 |
| 20260507153920 | 20 | 5 | 0.0 | 0.0 | 0.00 | 1.19 | 1.19 | 98 | 1010.1 |
| 20260507153417 | 20 | 5 | 0.0 | 0.0 | 0.18 | 1.19 | 1.19 | 98 | 1009.7 |
| 20260507152913 | 20 | 8 | 0.0 | 0.0 | 0.18 | 1.19 | 1.19 | 98 | 1009.4 |
| 20260507152409 | 20 | 8 | 0.0 | 0.0 | 0.00 | 1.17 | 1.17 | 98 | 1009.5 |
| 20260507151906 | 20 | 8 | 0.0 | 0.0 | 0.00 | 1.17 | 1.17 | 98 | 1009.9 |
| 20260507151402 | 20 | 8 | 0.0 | 1.6 | 0.00 | 1.17 | 1.17 | 98 | 1009.9 |
| 20260507150859 | 20 | 327 | 0.0 | 0.0 | 0.00 | 1.17 | 1.17 | 98 | 1009.6 |
| 20260507150356 | 20 | 322 | 0.0 | 0.0 | 0.13 | 1.17 | 1.17 | 98 | 1010.2 |
| 20260507145852 | 20 | 144 | 0.0 | 0.0 | 0.30 | 1.17 | 1.17 | 98 | 1009.8 |
| 20260507145348 | 19 | 66 | 0.0 | 0.0 | 0.18 | 1.14 | 1.14 | 98 | 1010.0 |
| 20260507144845 | 19 | 168 | 0.0 | 0.0 | 0.13 | 1.12 | 1.12 | 98 | 1010.1 |
| 20260507144342 | 19 | 58 | 0.0 | 0.0 | 0.13 | 1.12 | 1.12 | 98 | 1010.0 |
| 20260507143839 | 19 | 50 | 0.0 | 0.0 | 0.18 | 1.09 | 1.09 | 98 | 1010.3 |
| 20260507143336 | 19 | 67 | 0.0 | 0.0 | 0.30 | 1.09 | 1.09 | 98 | 1010.2 |
| 20260507142832 | 19 | 139 | 0.0 | 0.0 | 0.13 | 1.07 | 1.07 | 98 | 1010.3 |
| 20260507142329 | 19 | 150 | 0.0 | 0.0 | 0.18 | 1.04 | 1.04 | 98 | 1010.4 |
| 20260507141826 | 19 | 280 | 0.0 | 1.6 | 0.18 | 1.04 | 1.04 | 98 | 1010.2 |
| 20260507141323 | 19 | 130 | 0.0 | 0.0 | 0.00 | 1.02 | 1.02 | 98 | 1010.4 |
| 20260507140819 | 19 | 147 | 0.0 | 1.6 | 0.00 | 1.02 | 1.02 | 98 | 1010.2 |
| 20260507140316 | 19 | 53 | 0.0 | 0.0 | 0.00 | 1.02 | 1.02 | 98 | 1010.3 |
| 20260507135814 | 19 | 48 | 0.0 | 0.0 | 0.13 | 1.02 | 1.02 | 98 | 1010.5 |
| 20260507135311 | 19 | 44 | 0.0 | 0.0 | 0.13 | 1.02 | 1.02 | 98 | 1010.4 |
| 20260507134808 | 19 | 44 | 0.0 | 0.0 | 0.00 | 0.99 | 0.99 | 98 | 1010.4 |
| 20260507134303 | 19 | 268 | 0.0 | 0.0 | 0.18 | 0.99 | 0.99 | 98 | 1010.8 |
| 20260507133759 | 19 | 243 | 0.0 | 0.0 | 0.30 | 0.99 | 0.99 | 98 | 1010.7 |
| 20260507133256 | 19 | 152 | 0.0 | 0.0 | 0.48 | 0.97 | 0.97 | 98 | 1010.7 |
| 20260507132754 | 19 | 292 | 0.0 | 0.0 | 0.79 | 0.97 | 0.97 | 98 | 1010.6 |
| 20260507132250 | 19 | 318 | 0.0 | 1.6 | 0.61 | 0.91 | 0.91 | 98 | 1010.8 |
| 20260507131747 | 19 | 48 | 0.0 | 0.0 | 0.30 | 0.84 | 0.84 | 98 | 1010.7 |
| 20260507131244 | 19 | 78 | 0.0 | 0.0 | 0.30 | 0.81 | 0.81 | 98 | 1010.6 |
| 20260507130741 | 19 | 9 | 0.0 | 0.0 | 0.13 | 0.79 | 0.79 | 98 | 1010.6 |
| 20260507130239 | 19 | 38 | 0.0 | 0.0 | 0.18 | 0.76 | 0.76 | 98 | 1010.6 |
| 20260507125737 | 18 | 103 | 0.0 | 0.0 | 0.18 | 0.76 | 0.76 | 98 | 1010.6 |
| 20260507125234 | 18 | 41 | 0.0 | 0.0 | 0.00 | 0.74 | 0.74 | 98 | 1010.6 |
| 20260507124731 | 18 | 145 | 0.0 | 0.0 | 0.00 | 0.74 | 0.74 | 98 | 1010.7 |
| 20260507124228 | 18 | 137 | 0.0 | 0.0 | 0.00 | 0.74 | 0.74 | 98 | 1010.6 |
| 20260507123726 | 18 | 64 | 0.0 | 0.0 | 0.00 | 0.74 | 0.74 | 98 | 1010.6 |
| 20260507123224 | 18 | 51 | 0.0 | 0.0 | 0.13 | 0.74 | 0.74 | 98 | 1010.6 |
| 20260507122718 | 18 | 117 | 0.0 | 0.0 | 0.13 | 0.74 | 0.74 | 98 | 1010.6 |
| 20260507122215 | 18 | 74 | 0.0 | 0.0 | 0.00 | 0.71 | 0.71 | 98 | 1010.6 |
| 20260507121710 | 18 | 77 | 0.0 | 0.0 | 0.00 | 0.71 | 0.71 | 98 | 1010.5 |
| 20260507121207 | 18 | 87 | 0.0 | 0.0 | 0.00 | 0.71 | 0.71 | 98 | 1010.2 |
| 20260507120703 | 18 | 92 | 0.0 | 0.0 | 0.18 | 0.71 | 0.71 | 98 | 1010.5 |
| 20260507120200 | 18 | 93 | 0.0 | 0.0 | 0.18 | 0.71 | 0.71 | 98 | 1010.6 |
| 20260507115656 | 18 | 96 | 0.0 | 0.0 | 0.00 | 0.69 | 0.69 | 98 | 1010.8 |
| 20260507115152 | 18 | 70 | 0.0 | 1.6 | 0.00 | 0.69 | 0.69 | 98 | 1010.7 |
| 20260507114648 | 18 | 92 | 0.0 | 0.0 | 0.00 | 0.69 | 0.69 | 98 | 1010.8 |
| 20260507114145 | 18 | 68 | 0.0 | 0.0 | 0.00 | 0.69 | 0.69 | 98 | 1010.8 |
| 20260507113642 | 18 | 81 | 0.0 | 0.0 | 0.00 | 0.69 | 0.69 | 98 | 1011.0 |
| 20260507113139 | 18 | 44 | 0.0 | 0.0 | 0.00 | 0.69 | 0.69 | 98 | 1010.8 |
| 20260507112637 | 18 | 41 | 0.0 | 0.0 | 0.00 | 0.69 | 0.69 | 98 | 1010.9 |
| 20260507112133 | 18 | 134 | 0.0 | 0.0 | 0.00 | 0.69 | 0.69 | 98 | 1010.9 |
| 20260507111631 | 18 | 124 | 0.0 | 0.0 | 0.00 | 0.69 | 0.69 | 98 | 1011.0 |
| 20260507111127 | 18 | 188 | 0.0 | 0.0 | 0.00 | 0.69 | 0.69 | 98 | 1011.0 |
| 20260507110624 | 18 | 339 | 0.0 | 1.6 | 0.00 | 0.69 | 0.69 | 98 | 1011.1 |
| 20260507110120 | 18 | 163 | 0.0 | 0.0 | 0.00 | 0.69 | 0.69 | 98 | 1011.0 |
| 20260507105617 | 18 | 42 | 0.0 | 0.0 | 0.00 | 0.69 | 0.69 | 98 | 1010.8 |
| 20260507105113 | 18 | 87 | 0.0 | 0.0 | 0.00 | 0.69 | 0.69 | 98 | 1010.7 |
| 20260507104611 | 18 | 183 | 0.0 | 0.0 | 0.00 | 0.69 | 0.69 | 98 | 1010.5 |
| 20260507104107 | 18 | 94 | 0.0 | 0.0 | 0.00 | 0.69 | 0.69 | 98 | 1010.4 |
| 20260507103603 | 18 | 102 | 0.0 | 0.0 | 0.00 | 0.69 | 0.69 | 98 | 1010.4 |
| 20260507103100 | 18 | 288 | 0.0 | 1.6 | 0.00 | 0.69 | 0.69 | 98 | 1010.6 |
| 20260507102556 | 18 | 141 | 0.0 | 0.0 | 0.13 | 0.69 | 0.69 | 98 | 1010.6 |
| 20260507102053 | 18 | 107 | 0.0 | 0.0 | 0.13 | 0.69 | 0.69 | 98 | 1010.6 |
| 20260507101548 | 18 | 107 | 0.0 | 0.0 | 0.00 | 0.66 | 0.66 | 98 | 1010.6 |
| 20260507101045 | 18 | 350 | 0.0 | 0.0 | 0.00 | 0.66 | 0.66 | 98 | 1010.5 |
| 20260507100542 | 18 | 26 | 0.0 | 0.0 | 0.00 | 0.66 | 0.66 | 98 | 1010.7 |
| 20260507100040 | 18 | 350 | 0.0 | 0.0 | 0.00 | 0.66 | 0.66 | 98 | 1010.5 |
| 20260507095538 | 18 | 350 | 0.0 | 0.0 | 0.00 | 0.66 | 0.66 | 98 | 1010.7 |
| 20260507095034 | 18 | 350 | 0.0 | 0.0 | 0.18 | 0.66 | 0.66 | 98 | 1010.7 |
| 20260507094531 | 17 | 350 | 0.0 | 0.0 | 0.18 | 0.66 | 0.66 | 98 | 1010.4 |
| 20260507094028 | 17 | 350 | 0.0 | 0.0 | 0.00 | 0.64 | 0.64 | 98 | 1010.4 |
| 20260507093525 | 17 | 351 | 0.0 | 0.0 | 0.00 | 0.64 | 0.64 | 98 | 1010.8 |
| 20260507093024 | 17 | 98 | 0.0 | 0.0 | 0.00 | 0.64 | 0.64 | 98 | 1010.7 |
| 20260507092520 | 17 | 103 | 0.0 | 0.0 | 0.00 | 0.64 | 0.64 | 98 | 1010.6 |
| 20260507092017 | 17 | 95 | 0.0 | 0.0 | 0.00 | 0.64 | 0.64 | 98 | 1010.5 |
| 20260507091513 | 17 | 89 | 0.0 | 0.0 | 0.00 | 0.64 | 0.64 | 98 | 1010.5 |
| 20260507091009 | 17 | 95 | 0.0 | 0.0 | 0.13 | 0.64 | 0.64 | 98 | 1010.6 |
| 20260507090505 | 17 | 95 | 0.0 | 0.0 | 0.13 | 0.64 | 0.64 | 98 | 1010.7 |
| 20260507090002 | 17 | 95 | 0.0 | 0.0 | 0.00 | 0.61 | 0.61 | 98 | 1010.6 |
| 20260507085459 | 17 | 95 | 0.0 | 0.0 | 0.18 | 0.61 | 0.61 | 98 | 1010.8 |
| 20260507084955 | 17 | 95 | 0.0 | 0.0 | 0.18 | 0.61 | 0.61 | 98 | 1010.8 |
| 20260507084453 | 17 | 95 | 0.0 | 0.0 | 0.00 | 0.58 | 0.58 | 98 | 1010.9 |
| 20260507083950 | 17 | 95 | 0.0 | 0.0 | 0.00 | 0.58 | 0.58 | 98 | 1011.1 |
| 20260507083446 | 17 | 95 | 0.0 | 0.0 | 0.00 | 0.58 | 0.58 | 98 | 1010.9 |
| 20260507082942 | 17 | 95 | 0.0 | 0.0 | 0.00 | 0.58 | 0.58 | 98 | 1011.3 |
| 20260507082438 | 17 | 95 | 0.0 | 0.0 | 0.00 | 0.58 | 0.58 | 98 | 1011.4 |
| 20260507081935 | 17 | 95 | 0.0 | 0.0 | 0.00 | 0.58 | 0.58 | 97 | 1011.7 |
| 20260507081431 | 17 | 95 | 0.0 | 0.0 | 0.18 | 0.58 | 0.58 | 97 | 1011.4 |
| 20260507080929 | 17 | 82 | 0.0 | 0.0 | 0.30 | 0.58 | 0.58 | 97 | 1011.5 |
| 20260507080425 | 17 | 83 | 0.0 | 0.0 | 0.13 | 0.56 | 0.56 | 97 | 1011.5 |
| 20260507075920 | 17 | 82 | 0.0 | 0.0 | 0.30 | 0.56 | 0.56 | 97 | 1011.2 |
| 20260507075416 | 17 | 82 | 0.0 | 1.6 | 0.30 | 0.53 | 0.53 | 97 | 1011.1 |
| 20260507074913 | 17 | 145 | 0.0 | 0.0 | 0.43 | 0.51 | 0.51 | 97 | 1010.7 |
| 20260507074410 | 17 | 153 | 0.0 | 0.0 | 0.48 | 0.48 | 0.48 | 97 | 1010.7 |
| 20260507073908 | 17 | 95 | 0.0 | 0.0 | 0.18 | 0.43 | 0.43 | 97 | 1011.4 |
| 20260507073404 | 17 | 95 | 0.0 | 0.0 | 0.00 | 0.41 | 0.41 | 97 | 1011.6 |
| 20260507072901 | 17 | 95 | 0.0 | 0.0 | 0.00 | 0.41 | 0.41 | 97 | 1012.0 |
| 20260507072358 | 17 | 96 | 0.0 | 0.0 | 0.13 | 0.41 | 0.41 | 97 | 1012.0 |
| 20260507071856 | 17 | 95 | 0.0 | 0.0 | 0.13 | 0.41 | 0.41 | 97 | 1012.0 |
| 20260507071353 | 17 | 95 | 0.0 | 0.0 | 0.13 | 0.41 | 0.41 | 97 | 1011.8 |
| 20260507070849 | 17 | 95 | 0.0 | 0.0 | 0.00 | 0.38 | 0.38 | 97 | 1011.8 |
| 20260507070347 | 17 | 95 | 0.0 | 0.0 | 0.00 | 0.38 | 0.38 | 97 | 1011.9 |
| 20260507065843 | 17 | 96 | 0.0 | 0.0 | 0.00 | 0.38 | 0.38 | 97 | 1011.6 |
| 20260507065340 | 17 | 9 | 0.0 | 0.0 | 0.00 | 0.38 | 0.38 | 97 | 1011.8 |
| 20260507064837 | 17 | 8 | 0.0 | 0.0 | 0.00 | 0.38 | 0.38 | 97 | 1012.0 |
| 20260507064335 | 17 | 8 | 0.0 | 0.0 | 0.00 | 0.38 | 0.38 | 97 | 1012.0 |
| 20260507063833 | 17 | 8 | 0.0 | 0.0 | 0.00 | 0.38 | 0.38 | 97 | 1012.2 |
| 20260507063330 | 18 | 53 | 0.0 | 0.0 | 0.00 | 0.38 | 0.38 | 97 | 1012.3 |
| 20260507062826 | 18 | 92 | 0.0 | 0.0 | 0.00 | 0.38 | 0.38 | 97 | 1012.4 |
| 20260507062323 | 18 | 52 | 0.0 | 0.0 | 0.00 | 0.38 | 0.38 | 97 | 1012.4 |
| 20260507061821 | 18 | 335 | 0.0 | 0.0 | 0.00 | 0.38 | 0.38 | 97 | 1012.6 |
| 20260507061319 | 18 | 335 | 0.0 | 0.0 | 0.00 | 0.38 | 0.38 | 97 | 1012.2 |
| 20260507060817 | 18 | 123 | 0.0 | 0.0 | 0.00 | 0.38 | 0.38 | 97 | 1012.3 |
| 20260507060314 | 18 | 123 | 0.0 | 0.0 | 0.00 | 0.38 | 0.38 | 97 | 1012.6 |
| 20260507055810 | 18 | 123 | 0.0 | 0.0 | 0.00 | 0.38 | 0.38 | 97 | 1012.8 |
| 20260507055306 | 18 | 47 | 0.0 | 0.0 | 0.00 | 0.38 | 0.38 | 97 | 1012.6 |
| 20260507054802 | 18 | 47 | 0.0 | 0.0 | 0.00 | 0.38 | 0.38 | 96 | 1012.8 |
| 20260507054258 | 18 | 47 | 0.0 | 0.0 | 0.00 | 0.38 | 0.38 | 96 | 1012.6 |
| 20260507053756 | 18 | 47 | 0.0 | 0.0 | 0.00 | 0.38 | 0.38 | 96 | 1012.9 |
| 20260507053253 | 18 | 47 | 0.0 | 0.0 | 0.00 | 0.38 | 0.38 | 96 | 1012.6 |
| 20260507052752 | 18 | 73 | 0.0 | 0.0 | 0.00 | 0.38 | 0.38 | 96 | 1011.6 |
| 20260507052248 | 18 | 187 | 0.0 | 0.0 | 0.00 | 0.38 | 0.38 | 96 | 1011.6 |
| 20260507051747 | 18 | 143 | 0.0 | 0.0 | 0.18 | 0.38 | 0.38 | 96 | 1011.8 |
| 20260507051243 | 18 | 92 | 0.0 | 0.0 | 0.48 | 0.38 | 0.38 | 96 | 1011.7 |
| 20260507050739 | 18 | 98 | 0.0 | 0.0 | 0.48 | 0.36 | 0.36 | 96 | 1011.8 |
| 20260507050237 | 18 | 54 | 0.0 | 1.6 | 0.66 | 0.33 | 0.33 | 96 | 1012.3 |
| 20260507045733 | 18 | 146 | 0.0 | 0.0 | 0.43 | 0.28 | 0.28 | 96 | 1013.5 |